Regional Weather Roundup
Issued by NWS Spokane, WA

Home | Current Version | Previous Version | Text Only | Print | Product List | Glossary On
Versions: 1 2 3 4 5 6 7 8 9 10 11 12 13 14 15 16 17 18 19 20 21 22 23 24 25 26 27 28 29 30 31 32 33 34 35 36 37 38 39 40 41 42 43 44 45 46 47 48 49 50
422
NZUS01 KOTX 221410
RWROTX
EASTERN WASHINGTON/NORTHERN IDAHO ROUNDUP
NATIONAL WEATHER SERVICE, SPOKANE WA
700 AM PDT FRI MAY 22 2015

Note: "fair" indicated few or no clouds below 12,000 feet with no
significant weather and/or obstructions to visibility.

...NORTHEAST WASHINGTON AND NORTHERN IDAHO PANHANDLE...

CITY           SKY/WX    TMP DP  RH WIND       PRES   REMARKS
SPOKANE INTL   PTSUNNY   60  50  69 SE6       29.87R
SPOKANE DOWNTO MOSUNNY   62  52  69 VRB3      29.87R
COEUR D ALENE  MOSUNNY   57  48  72 CALM      29.87S
DEER PARK      MOSUNNY   59  48  67 CALM      29.87S
SANDPOINT      MOSUNNY   55  41  58 CALM      29.89S
BONNERS FERRY  FAIR      55  41  58 CALM      29.91S

...SOUTHEAST WASHINGTON AND SOUTHERN IDAHO PANHANDLE...

CITY           SKY/WX    TMP DP  RH WIND       PRES   REMARKS
WALLA WALLA    CLOUDY    65  54  67 S5        29.84R
PULLMAN/MOSCOW MOSUNNY   58  51  78 NE3       29.89S
LEWISTON       MOSUNNY   62  53  72 E3        29.86R
LOWELL           N/A     50  48  93 CALM      29.93S

...COLUMBIA BASIN...

CITY           SKY/WX    TMP DP  RH WIND       PRES   REMARKS
EPHRATA        LGT RAIN  63  54  72 VRB5      29.81R
MOSES LAKE     PTSUNNY   61  55  81 SE6       29.82R
TRI CITIES     LGT RAIN  66  56  70 S6        29.82R
HERMISTON      CLOUDY    65  55  70 SW3       29.83R
PENDLETON      CLOUDY    59  52  77 S5        29.85R

...EAST SLOPES CASCADES...

CITY           SKY/WX    TMP DP  RH WIND       PRES   REMARKS
THE DALLES     CLOUDY    62  51  67 MISG      29.86R
YAKIMA         LGT RAIN  66  53  63 VRB3      29.84R
ELLENSBURG     PTSUNNY   65  53  65 NW13G23   29.85S
WENATCHEE      LGT RAIN  62  52  69 NW14      29.84S
OMAK           SUNNY     64  45  49 N8        29.84R

...SOUTHERN BRITISH COLUMBIA...

CITY           SKY/WX    TMP DP  RH WIND       PRES   REMARKS
PENTICTON      MOSUNNY   63  48  59 N6        29.86S
CASTLEGAR      MOSUNNY   52  43  71 VRB2      29.90R
CRANBROOK      MOSUNNY   54  32  43 W6        29.96R

...WESTERN MONTANA...

CITY           SKY/WX    TMP DP  RH WIND       PRES   REMARKS
MISSOULA       MOSUNNY   50  44  80 W3        29.96S

...NEIGHBORING CITIES...

CITY           SKY/WX    TMP DP  RH WIND       PRES   REMARKS
SEATTLE        CLOUDY    54  50  86 SW5       29.97R
CALGARY        MOSUNNY   48  32  53 VRB2      30.00R



USA.gov is the U.S. government's official web portal to all federal, state and local government web resources and services.